• Em Portugal
  • Lista de países
  • Para 7 dias
  • Temperatura da água
  • Mapas de satélite
  • Mapa do tempo
  • Widgets de tempo
  • user-avatar
    Iniciar Sessão

    Previsão horária em Trubcheva

    Hoje, 23 Julho, Segunda-feira

    Tempo Temperatura Precipitação Vento Pressão Humidade
    00:00 +18°C° 0 mm 3 m/s 734 mmHg 96%
    01:00 +18°C° 0 mm 4 m/s 734 mmHg 97%
    02:00 +18°C° 0 mm 4 m/s 734 mmHg 97%
    03:00 +18°C° 0 mm 4 m/s 734 mmHg 96%
    04:00 +18°C° 0 mm 4 m/s 734 mmHg 96%
    05:00 +18°C° 0 mm 4 m/s 734 mmHg 95%
    06:00 +19°C° 0 mm 4 m/s 734 mmHg 94%
    07:00 +19°C° 0 mm 4 m/s 734 mmHg 93%
    08:00 +19°C° 0 mm 4 m/s 734 mmHg 92%
    09:00 +19°C° 0 mm 4 m/s 735 mmHg 91%
    10:00 +20°C° 0 mm 4 m/s 735 mmHg 90%
    11:00 +20°C° 0 mm 5 m/s 735 mmHg 89%
    12:00 +20°C° 0,1 mm 5 m/s 735 mmHg 87%
    13:00 +21°C° 0,1 mm 5 m/s 735 mmHg 86%
    14:00 +21°C° 0,1 mm 5 m/s 735 mmHg 85%
    15:00 +21°C° 0 mm 5 m/s 735 mmHg 85%
    16:00 +21°C° 0 mm 5 m/s 735 mmHg 86%
    17:00 +21°C° 0 mm 4 m/s 734 mmHg 87%
    18:00 +21°C° 0,1 mm 4 m/s 735 mmHg 89%
    19:00 +20°C° 0,1 mm 4 m/s 735 mmHg 91%
    20:00 +20°C° 0,1 mm 4 m/s 735 mmHg 94%
    21:00 +19°C° 1,1 mm 4 m/s 735 mmHg 95%
    22:00 +19°C° 1,1 mm 4 m/s 735 mmHg 96%
    23:00 +19°C° 1,1 mm 3 m/s 735 mmHg 97%

    Amanhã, 24 Julho, Terça-feira

    Tempo Temperatura Precipitação Vento Pressão Humidade
    00:00 +19°C° 0,1 mm 3 m/s 735 mmHg 97%
    01:00 +19°C° 0,1 mm 3 m/s 735 mmHg 97%
    02:00 +19°C° 0,1 mm 3 m/s 735 mmHg 98%
    03:00 +19°C° 0,2 mm 3 m/s 735 mmHg 97%
    04:00 +19°C° 0,2 mm 3 m/s 735 mmHg 97%
    05:00 +19°C° 0,2 mm 3 m/s 736 mmHg 97%
    06:00 +20°C° 0 mm 3 m/s 736 mmHg 94%
    07:00 +21°C° 0 mm 3 m/s 736 mmHg 91%
    08:00 +23°C° 0 mm 2 m/s 736 mmHg 88%
    09:00 +24°C° 0,6 mm 2 m/s 736 mmHg 83%
    10:00 +25°C° 0,6 mm 3 m/s 737 mmHg 78%
    11:00 +26°C° 0,6 mm 3 m/s 737 mmHg 73%
    12:00 +27°C° 0,8 mm 3 m/s 737 mmHg 71%
    13:00 +27°C° 0,8 mm 3 m/s 737 mmHg 69%
    14:00 +28°C° 0,8 mm 3 m/s 737 mmHg 67%
    15:00 +28°C° 0,5 mm 2 m/s 737 mmHg 71%
    16:00 +27°C° 0,5 mm 2 m/s 737 mmHg 74%
    17:00 +27°C° 0,5 mm 2 m/s 737 mmHg 77%
    18:00 +26°C° 0,3 mm 2 m/s 737 mmHg 81%
    19:00 +24°C° 0,3 mm 3 m/s 738 mmHg 85%
    20:00 +21°C° 0,3 mm 3 m/s 738 mmHg 90%
    21:00 +21°C° 0 mm 3 m/s 738 mmHg 91%
    22:00 +20°C° 0 mm 3 m/s 738 mmHg 93%
    23:00 +20°C° 0 mm 3 m/s 738 mmHg 94%

    Depois de amanhã, 25 Julho, Quarta-feira

    Tempo Temperatura Precipitação Vento Pressão Humidade
    00:00 +19°C° 0 mm 3 m/s 739 mmHg 95%
    01:00 +19°C° 0 mm 3 m/s 739 mmHg 95%
    02:00 +19°C° 0 mm 3 m/s 739 mmHg 96%
    03:00 +19°C° 0,1 mm 3 m/s 739 mmHg 96%
    04:00 +19°C° 0,1 mm 3 m/s 739 mmHg 95%
    05:00 +19°C° 0,1 mm 3 m/s 739 mmHg 95%
    06:00 +20°C° 0 mm 3 m/s 739 mmHg 91%
    07:00 +21°C° 0 mm 4 m/s 739 mmHg 87%
    08:00 +22°C° 0 mm 4 m/s 739 mmHg 83%
    09:00 +23°C° 0,1 mm 5 m/s 739 mmHg 79%
    10:00 +23°C° 0,1 mm 6 m/s 739 mmHg 74%
    11:00 +23°C° 0,1 mm 7 m/s 739 mmHg 70%
    12:00 +22°C° 0,4 mm 7 m/s 739 mmHg 75%
    13:00 +21°C° 0,4 mm 6 m/s 739 mmHg 80%
    14:00 +20°C° 0,4 mm 6 m/s 739 mmHg 85%
    15:00 +21°C° 0,2 mm 6 m/s 739 mmHg 84%
    16:00 +21°C° 0,2 mm 6 m/s 739 mmHg 84%
    17:00 +22°C° 0,2 mm 6 m/s 739 mmHg 83%
    18:00 +21°C° 0,2 mm 6 m/s 739 mmHg 83%
    19:00 +21°C° 0,2 mm 6 m/s 739 mmHg 83%
    20:00 +20°C° 0,2 mm 6 m/s 739 mmHg 84%
    21:00 +20°C° 0,1 mm 6 m/s 739 mmHg 84%
    22:00 +20°C° 0,1 mm 5 m/s 739 mmHg 85%
    23:00 +20°C° 0,1 mm 5 m/s 739 mmHg 86%

    26 Julho, Quinta-feira

    Tempo Temperatura Precipitação Vento Pressão Humidade
    00:00 +19°C° 0 mm 5 m/s 739 mmHg 86%
    01:00 +19°C° 0 mm 4 m/s 739 mmHg 87%
    02:00 +19°C° 0 mm 4 m/s 739 mmHg 87%
    03:00 +19°C° 0 mm 4 m/s 739 mmHg 88%
    04:00 +18°C° 0 mm 4 m/s 740 mmHg 88%
    05:00 +18°C° 0 mm 4 m/s 740 mmHg 88%
    06:00 +19°C° 0 mm 4 m/s 740 mmHg 85%
    07:00 +20°C° 0 mm 4 m/s 740 mmHg 83%
    08:00 +21°C° 0 mm 4 m/s 740 mmHg 80%
    09:00 +23°C° 0 mm 5 m/s 741 mmHg 76%
    10:00 +25°C° 0 mm 5 m/s 741 mmHg 73%
    11:00 +26°C° 0 mm 5 m/s 741 mmHg 70%
    12:00 +27°C° 0 mm 5 m/s 741 mmHg 68%
    13:00 +27°C° 0 mm 6 m/s 741 mmHg 67%
    14:00 +28°C° 0 mm 6 m/s 741 mmHg 65%
    15:00 +27°C° 0 mm 6 m/s 741 mmHg 68%
    16:00 +27°C° 0 mm 5 m/s 741 mmHg 71%
    17:00 +26°C° 0 mm 5 m/s 741 mmHg 73%
    18:00 +25°C° 0,1 mm 5 m/s 741 mmHg 77%
    19:00 +23°C° 0,1 mm 4 m/s 742 mmHg 81%
    20:00 +22°C° 0,1 mm 4 m/s 742 mmHg 86%
    21:00 +21°C° 0,4 mm 4 m/s 742 mmHg 88%
    22:00 +21°C° 0,4 mm 3 m/s 742 mmHg 90%
    23:00 +21°C° 0,4 mm 3 m/s 742 mmHg 92%

    27 Julho, Sexta-feira

    Tempo Temperatura Precipitação Vento Pressão Humidade
    00:00 +20°C° 0,1 mm 3 m/s 742 mmHg 92%
    01:00 +20°C° 0,1 mm 3 m/s 742 mmHg 92%
    02:00 +19°C° 0,1 mm 3 m/s 743 mmHg 93%
    03:00 +20°C° 0,3 mm 3 m/s 743 mmHg 92%
    04:00 +20°C° 0,3 mm 3 m/s 743 mmHg 92%
    05:00 +20°C° 0,3 mm 4 m/s 743 mmHg 91%
    06:00 +21°C° 0 mm 4 m/s 743 mmHg 87%
    07:00 +22°C° 0 mm 5 m/s 743 mmHg 82%
    08:00 +23°C° 0 mm 5 m/s 743 mmHg 78%
    09:00 +25°C° 0 mm 5 m/s 744 mmHg 75%
    10:00 +24°C° 0 mm 6 m/s 744 mmHg 71%
    11:00 +26°C° 0 mm 6 m/s 744 mmHg 68%
    12:00 +26°C° 0 mm 6 m/s 744 mmHg 67%
    13:00 +27°C° 0 mm 6 m/s 744 mmHg 67%
    14:00 +27°C° 0 mm 6 m/s 744 mmHg 66%
    15:00 +27°C° 0 mm 5 m/s 744 mmHg 69%
    16:00 +27°C° 0 mm 4 m/s 744 mmHg 72%
    17:00 +27°C° 0 mm 4 m/s 744 mmHg 75%
    18:00 +26°C° 0 mm 4 m/s 744 mmHg 78%
    19:00 +24°C° 0 mm 3 m/s 744 mmHg 82%
    20:00 +22°C° 0 mm 3 m/s 744 mmHg 85%
    21:00 +22°C° 0 mm 3 m/s 744 mmHg 85%
    22:00 +21°C° 0 mm 3 m/s 744 mmHg 85%
    23:00 +21°C° 0 mm 3 m/s 744 mmHg 86%

    28 Julho, Sábado

    Tempo Temperatura Precipitação Vento Pressão Humidade
    00:00 +20°C° 0 mm 3 m/s 744 mmHg 87%
    01:00 +20°C° 0 mm 3 m/s 744 mmHg 89%
    02:00 +20°C° 0 mm 3 m/s 744 mmHg 90%
    03:00 +20°C° 0 mm 3 m/s 744 mmHg 90%
    04:00 +20°C° 0 mm 3 m/s 744 mmHg 90%
    05:00 +20°C° 0 mm 3 m/s 744 mmHg 90%
    06:00 +21°C° 0 mm 3 m/s 744 mmHg 86%
    07:00 +22°C° 0 mm 3 m/s 744 mmHg 82%
    08:00 +23°C° 0 mm 4 m/s 744 mmHg 79%
    09:00 +25°C° 0,6 mm 4 m/s 744 mmHg 76%
    10:00 +26°C° 0,6 mm 4 m/s 744 mmHg 73%
    11:00 +27°C° 0,6 mm 4 m/s 744 mmHg 71%
    12:00 +27°C° 0,6 mm 4 m/s 744 mmHg 71%
    13:00 +27°C° 0,6 mm 3 m/s 744 mmHg 71%
    14:00 +27°C° 0,6 mm 3 m/s 744 mmHg 71%
    15:00 +27°C° 0,3 mm 3 m/s 744 mmHg 71%
    16:00 +28°C° 0,3 mm 3 m/s 744 mmHg 71%
    17:00 +28°C° 0,3 mm 2 m/s 744 mmHg 71%
    18:00 +26°C° 0,1 mm 3 m/s 744 mmHg 76%
    19:00 +25°C° 0,1 mm 3 m/s 744 mmHg 80%
    20:00 +22°C° 0,1 mm 3 m/s 744 mmHg 85%
    21:00 +21°C° 0 mm 3 m/s 744 mmHg 86%
    22:00 +21°C° 0 mm 3 m/s 744 mmHg 87%
    23:00 +20°C° 0 mm 3 m/s 744 mmHg 88%
    Mostrar mais